Regional Weather Roundup
Issued by NWS

Home | Current Version | Previous Version | Graphics & Text | Print | Product List | Glossary On
Versions: 1 2 3 4 5 6 7 8 9 10 11 12 13 14 15 16 17 18 19 20 21 22 23 24 25 26 27
000
ASUS45 KSLC 151710
RWRUT

UTAH REGIONAL WEATHER ROUNDUP
NATIONAL WEATHER SERVICE SALT LAKE CITY UT
1100 AM MDT TUE APR 15 2014

UTZ001>011-023>025-151800-

NORTHERN UTAH

CITY           SKY/WX    TMP DP  RH WIND       PRES   REMARKS
HILL AFB       MOSUNNY   55  14  19 S12       29.98F
LOGAN          SUNNY     53  18  25 CALM      29.95F
OGDEN          SUNNY     57  15  19 S14       29.97F
PROVO AIRPORT  PTSUNNY   48  25  40 SW3       30.04F
SALT LAKE CITY MOSUNNY   58  18  21 S14       29.98F
VERNAL         CLOUDY    40  21  46 VRB3      30.08F
WENDOVER       SUNNY     52  12  20 CALM      29.98F
HEBER CITY     MOSUNNY   45  19  36 CALM      30.03F
WEST JORDAN    SUNNY     54  28  37 S23       29.99F

$$

UTZ012>022-026-027-151800-

SOUTHERN UTAH

CITY           SKY/WX    TMP DP  RH WIND       PRES   REMARKS
BRYCE CANYON   MOSUNNY   50  12  21 SE10      30.14F
CEDAR CITY     PTSUNNY   61   5  10 SW13      30.07S
MILFORD        CLOUDY    56   5  13 S22       30.05S
MOAB/CYNLANDS  SUNNY     50  18  28 SE6       30.09F
PRICE            N/A     46   9  22 E5        30.11F
ST GEORGE      MOSUNNY   55  16  21 NW5       30.08F
KANAB            N/A     57   7  13 CALM      30.14F

$$

REGIONAL REPORTS     COLORADO/ARIZONA

CITY           SKY/WX    TMP DP  RH WIND       PRES   REMARKS
CRAIG, CO      PTSUNNY   43  21  41 E9        30.08F
GRAND JUNCTION SUNNY     46  20  35 SE8       30.13F
RIFLE          SUNNY     41  19  41 S3        30.13F
MONTROSE       SUNNY     45  19  35 NW6       30.15F
CORTEZ         SUNNY     51  10  19 VRB3      30.15F
PAGE, AZ       PTSUNNY   52  11  19 VRB5      30.11F
GRAND CANYON   MOSUNNY   58  -2   8 W6        30.15F
KINGMAN        MOSUNNY   68   0   6 N3        30.03S
FLAGSTAFF      MOSUNNY   56   3  11 VRB6      30.16F

$$

REGIONAL REPORTS    NEVADA/IDAHO/WYOMING

CITY           SKY/WX    TMP DP  RH WIND       PRES   REMARKS
LAS VEGAS, NV  PTSUNNY   68   8   9 VRB5      29.97S
ELY            SUNNY     55   7  14 VRB5      30.07F
ELKO           SUNNY     57  16  20 SW5       30.00F
POCATELLO, ID  PTSUNNY   61  10  13 S22G36    29.86F
BURLEY         LGT RAIN  58  21  24 W22G29    29.88S
EVANSTON, WY   MOSUNNY   49  13  23 SW16G23   30.00F
ROCK SPRINGS   MOSUNNY   50   6  16 W23G29    29.96F

$$



USA.gov is the U.S. government's official web portal to all federal, state and local government web resources and services.